| time (UTC) | temp F | wind direction | speed MPH | gust MPH | rain 1hr in | rain 24hr in | rain mn in | humidity % | barometer mb |
| 20260505002505 | 54 | 0 | 0.0 | 0.0 | 0.00 | 0.00 | 0.00 | 72 | 1011.4 |
| 20260505001622 | 53 | 244 | 4.0 | 0.0 | 0.00 | 0.00 | 0.00 | 70 | 1100.1 |
| 20260505001505 | 54 | 0 | 0.0 | 0.0 | 0.00 | 0.00 | 0.00 | 72 | 1011.1 |
| 20260505000505 | 54 | 0 | 0.0 | 0.0 | 0.00 | 0.00 | 0.00 | 72 | 1011.0 |
| 20260505000114 | 54 | 225 | 5.0 | 0.0 | 0.00 | 0.00 | 0.00 | 70 | 1100.1 |
| 20260505000005 | 54 | 0 | 0.0 | 0.0 | 0.00 | 0.00 | 0.00 | 72 | 1011.0 |
| 20260504234610 | 54 | 217 | 5.0 | 0.0 | 0.00 | 0.00 | 0.00 | 69 | 1100.1 |
| 20260504234505 | 54 | 0 | 0.0 | 0.0 | 0.00 | 0.00 | 0.00 | 71 | 1010.9 |
| 20260504234005 | 54 | 0 | 0.0 | 0.0 | 0.00 | 0.00 | 0.00 | 70 | 1010.7 |
| 20260504233018 | 54 | 232 | 6.0 | 0.0 | 0.00 | 0.00 | 0.00 | 69 | 1100.1 |
| 20260504232505 | 55 | 0 | 0.0 | 0.0 | 0.00 | 0.00 | 0.00 | 70 | 1010.6 |
| 20260504232006 | 55 | 0 | 0.0 | 0.0 | 0.00 | 0.00 | 0.00 | 69 | 1010.5 |
| 20260504231612 | 55 | 213 | 5.0 | 0.0 | 0.00 | 0.00 | 0.00 | 68 | 1100.1 |
| 20260504231504 | 55 | 0 | 0.0 | 0.0 | 0.00 | 0.00 | 0.00 | 69 | 1010.5 |
| 20260504230111 | 55 | 222 | 6.0 | 0.0 | 0.00 | 0.00 | 0.00 | 68 | 1100.1 |
| 20260504224508 | 56 | 229 | 7.0 | 0.0 | 0.00 | 0.00 | 0.00 | 67 | 1100.1 |
| 20260504223005 | 57 | 0 | 0.0 | 0.0 | 0.00 | 0.00 | 0.00 | 65 | 1010.1 |
| 20260504223002 | 56 | 185 | 6.0 | 0.0 | 0.00 | 0.00 | 0.00 | 66 | 1100.1 |
| 20260504222505 | 57 | 0 | 0.0 | 0.0 | 0.00 | 0.00 | 0.00 | 64 | 1010.1 |
| 20260504222005 | 58 | 0 | 0.0 | 0.0 | 0.00 | 0.00 | 0.00 | 63 | 1010.1 |
| 20260504221641 | 57 | 212 | 5.0 | 0.0 | 0.00 | 0.00 | 0.00 | 64 | 1100.1 |
| 20260504221005 | 58 | 0 | 0.0 | 0.0 | 0.00 | 0.00 | 0.00 | 61 | 1010.2 |
| 20260504220505 | 59 | 0 | 0.0 | 0.0 | 0.00 | 0.00 | 0.00 | 60 | 1010.1 |
| 20260504220110 | 58 | 227 | 6.0 | 0.0 | 0.00 | 0.00 | 0.00 | 63 | 1100.1 |
| 20260504214612 | 59 | 231 | 7.0 | 0.0 | 0.00 | 0.00 | 0.00 | 60 | 1100.1 |
| 20260504214504 | 60 | 0 | 0.0 | 0.0 | 0.00 | 0.00 | 0.00 | 58 | 1010.1 |
| 20260504214005 | 60 | 0 | 0.0 | 0.0 | 0.00 | 0.00 | 0.00 | 58 | 1010.1 |
| 20260504213109 | 59 | 239 | 7.0 | 0.0 | 0.00 | 0.00 | 0.00 | 60 | 1100.1 |
| 20260504213004 | 61 | 0 | 0.0 | 0.0 | 0.00 | 0.00 | 0.00 | 56 | 1010.0 |
| 20260504212005 | 62 | 0 | 0.0 | 0.0 | 0.00 | 0.00 | 0.00 | 56 | 1010.0 |
| 20260504211518 | 60 | 223 | 7.0 | 0.0 | 0.00 | 0.00 | 0.00 | 59 | 1100.1 |
| 20260504210129 | 60 | 222 | 6.0 | 0.0 | 0.00 | 0.00 | 0.00 | 61 | 1100.1 |
| 20260504205005 | 62 | 0 | 0.0 | 0.0 | 0.00 | 0.00 | 0.00 | 54 | 1009.9 |
| 20260504204632 | 60 | 208 | 7.0 | 0.0 | 0.00 | 0.00 | 0.00 | 60 | 1100.1 |
| 20260504204505 | 63 | 0 | 0.0 | 0.0 | 0.00 | 0.00 | 0.00 | 54 | 1009.9 |
| 20260504203137 | 61 | 226 | 8.0 | 0.0 | 0.00 | 0.00 | 0.00 | 56 | 1100.1 |
| 20260504203005 | 64 | 0 | 0.0 | 0.0 | 0.00 | 0.00 | 0.00 | 49 | 1009.6 |
| 20260504201618 | 63 | 253 | 7.0 | 0.0 | 0.00 | 0.00 | 0.00 | 45 | 1100.1 |
| 20260504200137 | 63 | 227 | 9.0 | 0.0 | 0.00 | 0.00 | 0.00 | 47 | 1100.1 |
| 20260504200005 | 67 | 0 | 0.0 | 0.0 | 0.00 | 0.00 | 0.00 | 43 | 1009.7 |
| 20260504195505 | 66 | 0 | 0.0 | 0.0 | 0.00 | 0.00 | 0.00 | 43 | 1009.8 |
| 20260504194640 | 64 | 243 | 9.0 | 0.0 | 0.00 | 0.00 | 0.00 | 45 | 1100.1 |
| 20260504194505 | 66 | 0 | 0.0 | 0.0 | 0.00 | 0.00 | 0.00 | 41 | 1009.7 |
| 20260504193137 | 64 | 248 | 9.0 | 0.0 | 0.00 | 0.00 | 0.00 | 46 | 1100.1 |
| 20260504193005 | 67 | 0 | 0.0 | 0.0 | 0.00 | 0.00 | 0.00 | 42 | 1009.7 |
| 20260504191640 | 65 | 236 | 7.0 | 0.0 | 0.00 | 0.00 | 0.00 | 47 | 1100.1 |
| 20260504191505 | 67 | 0 | 0.0 | 0.0 | 0.00 | 0.00 | 0.00 | 44 | 1009.5 |
| 20260504190142 | 65 | 228 | 7.0 | 0.0 | 0.00 | 0.00 | 0.00 | 49 | 1100.1 |
| 20260504185505 | 68 | 0 | 0.0 | 0.0 | 0.00 | 0.00 | 0.00 | 47 | 1009.7 |
| 20260504184638 | 64 | 182 | 6.0 | 0.0 | 0.00 | 0.00 | 0.00 | 56 | 1100.1 |
| 20260504184505 | 66 | 0 | 0.0 | 0.0 | 0.00 | 0.00 | 0.00 | 52 | 1009.9 |
| 20260504183506 | 67 | 0 | 0.0 | 0.0 | 0.00 | 0.00 | 0.00 | 50 | 1009.9 |
| 20260504183141 | 65 | 238 | 5.0 | 0.0 | 0.00 | 0.00 | 0.00 | 54 | 1100.1 |
| 20260504183006 | 67 | 0 | 0.0 | 0.0 | 0.00 | 0.00 | 0.00 | 51 | 1009.9 |
| 20260504182506 | 67 | 0 | 0.0 | 0.0 | 0.00 | 0.00 | 0.00 | 51 | 1009.8 |
| 20260504182006 | 67 | 0 | 0.0 | 0.0 | 0.00 | 0.00 | 0.00 | 52 | 1009.8 |
| 20260504181628 | 63 | 208 | 7.0 | 0.0 | 0.00 | 0.00 | 0.00 | 58 | 1100.1 |
| 20260504181506 | 66 | 0 | 0.0 | 0.0 | 0.00 | 0.00 | 0.00 | 53 | 1009.7 |
| 20260504180506 | 66 | 0 | 0.0 | 0.0 | 0.00 | 0.00 | 0.00 | 52 | 1009.8 |
| 20260504180130 | 64 | 236 | 7.0 | 0.0 | 0.00 | 0.00 | 0.00 | 55 | 1100.1 |
| 20260504180006 | 66 | 0 | 0.0 | 0.0 | 0.00 | 0.00 | 0.00 | 50 | 1009.8 |
| 20260504174607 | 64 | 225 | 8.0 | 0.0 | 0.00 | 0.00 | 0.00 | 51 | 1100.1 |
| 20260504174007 | 67 | 0 | 0.0 | 0.0 | 0.00 | 0.00 | 0.00 | 46 | 1009.8 |
| 20260504173506 | 67 | 0 | 0.0 | 0.0 | 0.00 | 0.00 | 0.00 | 48 | 1009.8 |
| 20260504173007 | 67 | 0 | 0.0 | 0.0 | 0.00 | 0.00 | 0.00 | 49 | 1009.8 |
| 20260504173002 | 64 | 200 | 8.0 | 0.0 | 0.00 | 0.00 | 0.00 | 54 | 1100.1 |
| 20260504171513 | 65 | 194 | 6.0 | 0.0 | 0.00 | 0.00 | 0.00 | 49 | 1100.1 |
| 20260504171006 | 68 | 0 | 0.0 | 0.0 | 0.00 | 0.00 | 0.00 | 45 | 1009.9 |
| 20260504170506 | 70 | 0 | 0.0 | 0.0 | 0.00 | 0.00 | 0.00 | 41 | 1009.8 |
| 20260504170123 | 67 | 178 | 8.0 | 0.0 | 0.00 | 0.00 | 0.00 | 39 | 1100.1 |
| 20260504160121 | 64 | 225 | 6.0 | 0.0 | 0.00 | 0.00 | 0.00 | 52 | 1100.1 |
| 20260504151007 | 64 | 0 | 0.0 | 0.0 | 0.00 | 0.00 | 0.00 | 54 | 1010.8 |
| 20260504150506 | 65 | 0 | 0.0 | 0.0 | 0.00 | 0.00 | 0.00 | 54 | 1010.8 |
| 20260504150117 | 62 | 219 | 7.0 | 0.0 | 0.00 | 0.00 | 0.00 | 55 | 1100.1 |
| 20260504140506 | 62 | 0 | 0.0 | 0.0 | 0.00 | 0.00 | 0.00 | 43 | 1011.4 |
| 20260504140146 | 63 | 254 | 5.0 | 0.0 | 0.00 | 0.00 | 0.00 | 44 | 1100.1 |
| 20260504130506 | 58 | 0 | 0.0 | 0.0 | 0.00 | 0.00 | 0.00 | 50 | 1011.8 |
| 20260504130123 | 59 | 256 | 5.0 | 0.0 | 0.00 | 0.00 | 0.00 | 49 | 1100.1 |
| 20260504120132 | 53 | 244 | 3.0 | 0.0 | 0.00 | 0.00 | 0.00 | 61 | 1100.1 |
| 20260504110135 | 46 | 244 | 1.0 | 0.0 | 0.00 | 0.00 | 0.00 | 73 | 1100.1 |
| 20260504100140 | 43 | 244 | 0.0 | 0.0 | 0.00 | 0.00 | 0.00 | 76 | 1100.1 |
| 20260504090136 | 43 | 244 | 0.0 | 0.0 | 0.00 | 0.00 | 0.00 | 77 | 1100.1 |
| 20260504081607 | 42 | 244 | 0.0 | 0.0 | 0.00 | 0.00 | 0.00 | 77 | 1100.1 |
| 20260504081006 | 43 | 0 | 0.0 | 0.0 | 0.00 | 0.01 | 0.00 | 77 | 1011.6 |
| 20260504080506 | 43 | 0 | 0.0 | 0.0 | 0.00 | 0.01 | 0.00 | 77 | 1011.5 |
| 20260504080112 | 42 | 244 | 0.0 | 0.0 | 0.00 | 0.00 | 0.00 | 78 | 1100.1 |
| 20260504070134 | 41 | 244 | 0.0 | 0.0 | 0.00 | 0.00 | 0.00 | 76 | 1100.1 |
| 20260504060143 | 39 | 244 | 0.0 | 0.0 | 0.00 | 0.00 | 0.00 | 75 | 1100.1 |
| 20260504050140 | 37 | 244 | 0.0 | 0.0 | 0.00 | 0.00 | 0.00 | 79 | 1100.1 |
| 20260504045006 | 37 | 0 | 0.0 | 0.0 | 0.00 | 0.03 | 0.00 | 85 | 1011.1 |
| 20260504044631 | 36 | 244 | 0.0 | 0.0 | 0.00 | 0.00 | 0.00 | 80 | 1100.1 |
| 20260504044506 | 37 | 0 | 0.0 | 0.0 | 0.00 | 0.03 | 0.00 | 85 | 1011.2 |
| 20260504044006 | 37 | 0 | 0.0 | 0.0 | 0.00 | 0.03 | 0.00 | 85 | 1011.1 |
| 20260504043506 | 37 | 0 | 0.0 | 0.0 | 0.00 | 0.03 | 0.00 | 85 | 1011.1 |
| 20260504043135 | 35 | 244 | 0.0 | 0.0 | 0.00 | 0.00 | 0.04 | 80 | 1100.1 |
| 20260504042506 | 37 | 0 | 0.0 | 0.0 | 0.00 | 0.04 | 0.00 | 85 | 1011.1 |
| 20260504041639 | 35 | 244 | 0.0 | 0.0 | 0.00 | 0.00 | 0.04 | 79 | 1100.1 |
| 20260504041505 | 37 | 0 | 0.0 | 0.0 | 0.00 | 0.04 | 0.00 | 84 | 1011.1 |
| 20260504041005 | 37 | 0 | 0.0 | 0.0 | 0.00 | 0.04 | 0.00 | 84 | 1011.0 |
| 20260504040505 | 37 | 0 | 0.0 | 0.0 | 0.00 | 0.04 | 0.00 | 84 | 1010.9 |
| 20260504040147 | 36 | 244 | 0.0 | 0.0 | 0.00 | 0.00 | 0.04 | 78 | 1100.1 |
| 20260504035505 | 38 | 0 | 0.0 | 0.0 | 0.00 | 0.04 | 0.04 | 84 | 1010.8 |
| 20260504035005 | 38 | 0 | 0.0 | 0.0 | 0.00 | 0.05 | 0.04 | 83 | 1010.8 |
| 20260504034505 | 38 | 0 | 0.0 | 0.0 | 0.00 | 0.06 | 0.04 | 83 | 1010.8 |
| 20260504034502 | 36 | 244 | 0.0 | 0.0 | 0.00 | 0.00 | 0.04 | 77 | 1100.1 |
| 20260504034006 | 38 | 0 | 0.0 | 0.0 | 0.00 | 0.06 | 0.04 | 82 | 1010.8 |
| 20260504033012 | 37 | 244 | 0.0 | 0.0 | 0.00 | 0.00 | 0.04 | 77 | 1100.1 |
| 20260504033005 | 38 | 0 | 0.0 | 0.0 | 0.00 | 0.07 | 0.04 | 81 | 1010.8 |
| 20260504032505 | 39 | 0 | 0.0 | 0.0 | 0.00 | 0.08 | 0.04 | 80 | 1010.7 |
| 20260504031558 | 38 | 244 | 0.0 | 0.0 | 0.00 | 0.00 | 0.04 | 75 | 1100.1 |
| 20260504030505 | 39 | 0 | 0.0 | 0.0 | 0.00 | 0.09 | 0.04 | 78 | 1010.6 |
| 20260504030005 | 40 | 0 | 0.0 | 0.0 | 0.00 | 0.09 | 0.04 | 77 | 1010.7 |
| 20260504025505 | 40 | 0 | 0.0 | 0.0 | 0.00 | 0.09 | 0.04 | 76 | 1010.6 |
| 20260504024517 | 38 | 244 | 0.0 | 0.0 | 0.00 | 0.00 | 0.04 | 76 | 1100.1 |
| 20260504024505 | 40 | 0 | 0.0 | 0.0 | 0.00 | 0.10 | 0.04 | 76 | 1010.5 |
| 20260504024007 | 40 | 0 | 0.0 | 0.0 | 0.00 | 0.10 | 0.04 | 76 | 1010.6 |
| 20260504023505 | 40 | 0 | 0.0 | 0.0 | 0.00 | 0.10 | 0.04 | 76 | 1010.5 |
| 20260504023103 | 39 | 244 | 0.0 | 0.0 | 0.00 | 0.00 | 0.04 | 74 | 1100.1 |
| 20260504021558 | 40 | 244 | 0.0 | 0.0 | 0.00 | 0.00 | 0.04 | 74 | 1100.1 |
| 20260504021506 | 40 | 0 | 0.0 | 0.0 | 0.00 | 0.12 | 0.04 | 76 | 1010.5 |
| 20260504020505 | 41 | 0 | 0.0 | 0.0 | 0.00 | 0.13 | 0.04 | 74 | 1010.4 |
| 20260504020010 | 40 | 244 | 0.0 | 0.0 | 0.00 | 0.00 | 0.04 | 70 | 1100.1 |
| 20260504020005 | 41 | 0 | 0.0 | 0.0 | 0.00 | 0.14 | 0.04 | 73 | 1010.4 |
| 20260504015005 | 41 | 0 | 0.0 | 0.0 | 0.00 | 0.16 | 0.04 | 72 | 1010.2 |
| 20260504014645 | 41 | 244 | 0.0 | 0.0 | 0.00 | 0.00 | 0.04 | 68 | 1100.1 |
| 20260504013145 | 42 | 244 | 0.0 | 0.0 | 0.00 | 0.00 | 0.04 | 67 | 1100.1 |
| 20260504013006 | 42 | 0 | 0.0 | 0.0 | 0.00 | 0.19 | 0.04 | 66 | 1010.2 |
| 20260504012006 | 43 | 0 | 0.0 | 0.0 | 0.00 | 0.20 | 0.04 | 67 | 1010.1 |
| 20260504011520 | 43 | 244 | 0.0 | 0.0 | 0.00 | 0.00 | 0.04 | 64 | 1100.1 |
| 20260504010005 | 44 | 0 | 0.0 | 0.0 | 0.00 | 0.21 | 0.04 | 64 | 1009.8 |
| 20260504005505 | 44 | 0 | 0.0 | 0.0 | 0.00 | 0.22 | 0.04 | 62 | 1009.7 |
| 20260504005006 | 45 | 0 | 0.0 | 0.0 | 0.00 | 0.22 | 0.04 | 63 | 1009.6 |
| 20260504004645 | 46 | 244 | 0.0 | 0.0 | 0.00 | 0.00 | 0.04 | 53 | 1100.1 |
| 20260504003013 | 47 | 244 | 1.0 | 0.0 | 0.00 | 0.00 | 0.04 | 49 | 1100.1 |
| 20260504003006 | 47 | 0 | 0.0 | 0.0 | 0.00 | 0.24 | 0.04 | 54 | 1009.3 |